User: anonymous   Login
Location: Unspecified
(0.0000°N, 0.0000°E)
Time: 08:04:50
(UTC+00:00)
Language:

FALCONSAT 3 - Orbit

View from above orbital plane
View from above orbital plane
View from above satellite
View from above satellite

Ground track
Ground track

The orbit data is extracted from the following two-line orbital elements,

1 30776U 07006E   20191.56067459  .00001648  00000-0  44627-4 0  9997
2 30776  35.4337 138.5632 0002217   1.4484 358.6249 15.37883976740242
Epoch (UTC): 09 July 2020 13:27:22
Eccentricity: 0.0002217
inclination: 35.4337°
perigee height: 451 km
apogee height: 454 km
right ascension of ascending node: 138.5632°
argument of perigee: 1.4484°
revolutions per day: 15.37883976
mean anomaly at epoch: 358.6249°
orbit number at epoch: 74024

The dashed part of the orbit path shows where the satellite is in the earth's shadow,  

DLR